Location: Ponte Samoggia
(44.5667°N, 11.1333°E)
Time: 22:58:19
(UTC+00:00)

MOS 1 Rocket - Pass Details

Date: 26 May 2022
Orbit: 615 x 828 km, 97.5° (Epoch: 26 June)

Event Time Altitude Azimuth Distance (km) Brightness Sun altitude
Exits shadow 02:23:24 16° 232° (SW) 1,629 4.6 -11.2°
Maximum altitude 02:25:21 21° 267° (W) 1,393 4.5 -11.0°
Drops below altitude 10° 02:28:38 10° 317° (NW) 1,990 5.7 -10.5°
Sets 02:31:18 0° 334° (NNW) 2,915 6.8 -10.2°
